User: anonymous   Login
Location: Unspecified
(0.0000°N, 0.0000°E)
Time: 23:30:11
(UTC+02:00)
Language:

NATO 3D Rocket - Orbit

View from above orbital plane
View from above orbital plane
View from above satellite
View from above satellite

Ground track
Ground track

The orbit data is extracted from the following two-line orbital elements,

1 15392U 84115B   17118.50984595 +.00000214 +00000-0 +57143-4 0  9993
2 15392 021.4940 178.1463 1034473 338.8486 017.1997 12.45547822460020
Epoch (UTC): 28 April 2017 12:14:10
Eccentricity: 0.1034473
inclination: 21.4940°
perigee height: 670 km
apogee height: 2296 km
right ascension of ascending node: 178.1463°
argument of perigee: 338.8486°
revolutions per day: 12.45547822
mean anomaly at epoch: 17.1997°
orbit number at epoch: 46002

The dashed part of the orbit path shows where the satellite is in the earth's shadow,  

DLR